UAL25 KSEA-KSFO

Flight info

Callsign UAL25
Flight time 1h 43m
Altitude 37000
Route HAROB6 ERAVE Q1 ETCHY MLBEC BDEGA4
Aircraft A320/M-SDE3FGHIRWY/LB1

Departure

Time 2026-05-04 03:26
Airport Seattle–Tacoma International Airport (KSEA)

Arrival

Time 2026-05-04 05:09
Airport San Francisco International Airport (KSFO)
Time Latitude Longitude Altitude Speed Heading
2026-05-04 02:53 47.44496 -122.30232 384 ft 0 kts 148°
2026-05-04 03:13 47.44507 -122.30243 384 ft 1 kts 139°
2026-05-04 03:13 47.44516 -122.30261 384 ft 3 kts 164°
2026-05-04 03:13 47.44540 -122.30268 383 ft 4 kts 179°
2026-05-04 03:14 47.44563 -122.30269 384 ft 4 kts 128°
2026-05-04 03:14 47.44566 -122.30271 384 ft 0 kts 87°
2026-05-04 03:17 47.44566 -122.30270 384 ft 0 kts 87°
2026-05-04 03:17 47.44568 -122.30264 384 ft 0 kts 58°
2026-05-04 03:18 47.44569 -122.30264 384 ft 0 kts 44°
2026-05-04 03:18 47.44571 -122.30262 384 ft 1 kts 44°
2026-05-04 03:19 47.44577 -122.30252 384 ft 0 kts 44°
2026-05-04 03:19 47.44584 -122.30243 384 ft 6 kts 44°
2026-05-04 03:19 47.44628 -122.30195 384 ft 9 kts 15°
2026-05-04 03:20 47.44684 -122.30238 384 ft 11 kts 309°
2026-05-04 03:20 47.44733 -122.30335 384 ft 13 kts 307°
2026-05-04 03:20 47.44767 -122.30462 384 ft 15 kts 270°
2026-05-04 03:20 47.44783 -122.30607 384 ft 12 kts 327°
2026-05-04 03:21 47.44812 -122.30630 384 ft 5 kts 338°
2026-05-04 03:21 47.44815 -122.30617 384 ft 1 kts 126°
2026-05-04 03:21 47.44793 -122.30622 384 ft 8 kts 186°
2026-05-04 03:21 47.44689 -122.30629 384 ft 21 kts 181°
2026-05-04 03:22 47.44531 -122.30630 384 ft 24 kts 180°
2026-05-04 03:22 47.44361 -122.30633 383 ft 25 kts 180°
2026-05-04 03:22 47.44178 -122.30634 383 ft 27 kts 180°
2026-05-04 03:22 47.43983 -122.30638 383 ft 29 kts 181°
2026-05-04 03:23 47.43777 -122.30638 383 ft 30 kts 181°
2026-05-04 03:23 47.43581 -122.30582 384 ft 25 kts 154°
2026-05-04 03:23 47.43403 -122.30563 384 ft 27 kts 178°
2026-05-04 03:23 47.43226 -122.30579 384 ft 25 kts 204°
2026-05-04 03:24 47.43178 -122.30667 384 ft 0 kts 253°
2026-05-04 03:24 47.43178 -122.30703 384 ft 8 kts 284°
2026-05-04 03:25 47.43206 -122.30790 384 ft 10 kts 341°
2026-05-04 03:25 47.43286 -122.30803 384 ft 14 kts
2026-05-04 03:25 47.43540 -122.30802 384 ft 69 kts 359°
2026-05-04 03:25 47.44223 -122.30797 384 ft 124 kts
2026-05-04 03:26 47.45236 -122.30786 391 ft 166 kts
2026-05-04 03:26 47.46402 -122.30798 887 ft 165 kts 359°
2026-05-04 03:26 47.47551 -122.30787 1454 ft 166 kts
2026-05-04 03:26 47.48718 -122.30748 2032 ft 169 kts
2026-05-04 03:27 47.49932 -122.30712 2446 ft 178 kts
2026-05-04 03:27 47.51211 -122.30725 2859 ft 189 kts 357°
2026-05-04 03:27 47.52586 -122.30825 3141 ft 210 kts 358°
2026-05-04 03:27 47.54134 -122.30919 3420 ft 234 kts 358°
2026-05-04 03:28 47.55803 -122.31371 3861 ft 255 kts 336°
2026-05-04 03:28 47.57329 -122.32789 4609 ft 263 kts 326°
2026-05-04 03:28 47.58846 -122.34342 5446 ft 266 kts 326°
2026-05-04 03:28 47.60252 -122.36136 6289 ft 271 kts 308°
2026-05-04 03:29 47.61059 -122.38676 7049 ft 278 kts 284°
2026-05-04 03:29 47.61407 -122.41514 7847 ft 281 kts 281°
2026-05-04 03:29 47.61549 -122.44417 8619 ft 286 kts 266°
2026-05-04 03:29 47.61082 -122.47308 9381 ft 292 kts 248°
2026-05-04 03:30 47.60019 -122.49891 10101 ft 298 kts 230°
2026-05-04 03:30 47.58557 -122.52178 10451 ft 316 kts 227°
2026-05-04 03:30 47.56968 -122.54602 10631 ft 339 kts 226°
2026-05-04 03:30 47.55290 -122.57154 11044 ft 350 kts 226°
2026-05-04 03:31 47.53578 -122.59756 11660 ft 355 kts 226°
2026-05-04 03:31 47.51845 -122.62395 12320 ft 359 kts 226°
2026-05-04 03:31 47.50095 -122.65063 12969 ft 363 kts 226°
2026-05-04 03:31 47.48328 -122.67753 13618 ft 366 kts 226°
2026-05-04 03:32 47.46541 -122.70472 14186 ft 370 kts 226°
2026-05-04 03:32 47.44762 -122.73178 14746 ft 373 kts 226°
2026-05-04 03:32 47.42945 -122.75947 15311 ft 376 kts 226°
2026-05-04 03:32 47.41117 -122.78728 15880 ft 379 kts 226°
2026-05-04 03:33 47.39270 -122.81529 16450 ft 382 kts 226°
2026-05-04 03:33 47.37406 -122.84347 17003 ft 385 kts 226°
2026-05-04 03:33 47.35531 -122.87176 17584 ft 388 kts 226°
2026-05-04 03:33 47.33637 -122.90035 18164 ft 391 kts 226°
2026-05-04 03:34 47.31726 -122.92922 18628 ft 395 kts 226°
2026-05-04 03:34 47.29799 -122.95837 19114 ft 399 kts 226°
2026-05-04 03:34 47.27847 -122.98787 19603 ft 404 kts 226°
2026-05-04 03:34 47.25874 -123.01766 20085 ft 408 kts 226°
2026-05-04 03:35 47.23802 -123.04650 20559 ft 413 kts 219°
2026-05-04 03:35 47.21487 -123.07198 21020 ft 417 kts 217°
2026-05-04 03:35 47.19143 -123.09740 21500 ft 421 kts 216°
2026-05-04 03:35 47.16780 -123.12306 21953 ft 425 kts 217°
2026-05-04 03:36 47.14391 -123.14900 22402 ft 429 kts 216°
2026-05-04 03:36 47.11982 -123.17513 22850 ft 433 kts 216°
2026-05-04 03:36 47.09548 -123.20148 23269 ft 436 kts 216°
2026-05-04 03:36 47.07091 -123.22802 23654 ft 440 kts 216°
2026-05-04 03:37 47.04618 -123.25469 24020 ft 443 kts 216°
2026-05-04 03:37 47.02128 -123.28156 24391 ft 446 kts 216°
2026-05-04 03:37 46.99624 -123.30855 24751 ft 448 kts 216°
2026-05-04 03:37 46.97098 -123.33573 25111 ft 451 kts 216°
2026-05-04 03:38 46.94505 -123.36173 25457 ft 453 kts 209°
2026-05-04 03:38 46.91662 -123.38167 25800 ft 455 kts 199°
2026-05-04 03:38 46.88621 -123.39442 26134 ft 455 kts 189°
2026-05-04 03:38 46.85478 -123.39965 26467 ft 455 kts 179°
2026-05-04 03:39 46.82305 -123.39898 26803 ft 456 kts 176°
2026-05-04 03:39 46.79166 -123.39791 27138 ft 459 kts 176°
2026-05-04 03:39 46.75958 -123.39690 27477 ft 461 kts 176°
2026-05-04 03:39 46.72741 -123.39594 27798 ft 464 kts 176°
2026-05-04 03:40 46.69502 -123.39495 28126 ft 466 kts 176°
2026-05-04 03:40 46.66251 -123.39395 28457 ft 469 kts 176°
2026-05-04 03:40 46.62984 -123.39293 28782 ft 471 kts 176°
2026-05-04 03:40 46.59695 -123.39190 29105 ft 473 kts 176°
2026-05-04 03:41 46.56397 -123.39086 29419 ft 475 kts 176°
2026-05-04 03:41 46.53085 -123.38984 29849 ft 475 kts 176°
2026-05-04 03:41 46.49783 -123.38880 30257 ft 474 kts 175°
2026-05-04 03:41 46.46484 -123.38778 30617 ft 474 kts 175°
2026-05-04 03:42 46.43189 -123.38678 30978 ft 474 kts 175°
2026-05-04 03:42 46.39932 -123.38581 31350 ft 473 kts 175°
2026-05-04 03:42 46.36636 -123.38481 31714 ft 473 kts 175°
2026-05-04 03:42 46.33346 -123.38376 32082 ft 473 kts 175°
2026-05-04 03:43 46.30052 -123.38269 32459 ft 473 kts 175°
2026-05-04 03:43 46.26783 -123.38166 32828 ft 473 kts 174°
2026-05-04 03:43 46.23473 -123.38065 33204 ft 473 kts 174°
2026-05-04 03:43 46.20179 -123.37966 33569 ft 473 kts 174°
2026-05-04 03:44 46.16889 -123.37863 33917 ft 473 kts 174°
2026-05-04 03:44 46.13597 -123.37759 34222 ft 473 kts 174°
2026-05-04 03:44 46.10306 -123.37657 34522 ft 473 kts 174°
2026-05-04 03:44 46.07008 -123.37556 34813 ft 473 kts 174°
2026-05-04 03:45 46.03725 -123.37459 35108 ft 473 kts 174°
2026-05-04 03:45 46.00432 -123.37362 35387 ft 473 kts 174°
2026-05-04 03:45 45.97142 -123.37262 35662 ft 472 kts 174°
2026-05-04 03:45 45.93855 -123.37164 35946 ft 472 kts 174°
2026-05-04 03:46 45.90575 -123.37066 36224 ft 471 kts 174°
2026-05-04 03:46 45.87293 -123.36967 36494 ft 471 kts 174°
2026-05-04 03:46 45.84023 -123.36864 36749 ft 471 kts 174°
2026-05-04 03:47 45.77445 -123.36657 36854 ft 476 kts 174°
2026-05-04 03:47 45.70801 -123.36455 36854 ft 477 kts 174°
2026-05-04 03:48 45.64206 -123.36258 36849 ft 477 kts 174°
2026-05-04 03:48 45.57571 -123.36063 36846 ft 476 kts 174°
2026-05-04 03:49 45.50959 -123.35868 36847 ft 475 kts 174°
2026-05-04 03:49 45.44346 -123.35669 36853 ft 475 kts 174°
2026-05-04 03:50 45.37734 -123.35469 36853 ft 475 kts 174°
2026-05-04 03:50 45.31132 -123.35267 36851 ft 474 kts 174°
2026-05-04 03:51 45.24537 -123.35072 36847 ft 474 kts 175°
2026-05-04 03:51 45.17999 -123.34887 36846 ft 473 kts 175°
2026-05-04 03:52 45.11408 -123.34684 36848 ft 472 kts 175°
2026-05-04 03:52 45.04849 -123.34482 36854 ft 471 kts 175°
2026-05-04 03:53 44.98301 -123.34286 36861 ft 470 kts 175°
2026-05-04 03:53 44.91763 -123.34102 36863 ft 469 kts 175°
2026-05-04 03:54 44.85232 -123.33916 36864 ft 469 kts 175°
2026-05-04 03:54 44.78706 -123.33725 36866 ft 469 kts 175°
2026-05-04 03:55 44.72190 -123.33533 36880 ft 468 kts 175°
2026-05-04 03:55 44.65678 -123.33340 36881 ft 468 kts 175°
2026-05-04 03:56 44.59172 -123.33152 36863 ft 468 kts 175°
2026-05-04 03:56 44.52661 -123.32957 36873 ft 468 kts 175°
2026-05-04 03:57 44.46198 -123.32759 36868 ft 467 kts 175°
2026-05-04 03:57 44.39695 -123.32493 36877 ft 467 kts 175°
2026-05-04 03:58 44.29963 -123.32080 36882 ft 466 kts 175°
2026-05-04 03:58 44.23475 -123.31824 36878 ft 466 kts 175°
2026-05-04 03:59 44.16988 -123.31563 36891 ft 466 kts 175°
2026-05-04 03:59 44.10503 -123.31305 36888 ft 466 kts 175°
2026-05-04 04:00 44.04014 -123.31048 36892 ft 466 kts 175°
2026-05-04 04:00 43.98632 -123.30833 36864 ft 465 kts 175°
2026-05-04 04:01 43.91103 -123.30533 36875 ft 465 kts 175°
2026-05-04 04:01 43.84629 -123.30276 36880 ft 465 kts 175°
2026-05-04 04:02 43.79202 -123.30068 36884 ft 465 kts 175°
2026-05-04 04:02 43.72774 -123.29818 36893 ft 465 kts 175°
2026-05-04 04:03 43.66311 -123.29567 36900 ft 465 kts 175°
2026-05-04 04:03 43.59831 -123.29310 36907 ft 465 kts 175°
2026-05-04 04:04 43.53347 -123.29052 36909 ft 465 kts 175°
2026-05-04 04:04 43.46868 -123.28802 36905 ft 465 kts 175°
2026-05-04 04:05 43.40394 -123.28556 36900 ft 465 kts 175°
2026-05-04 04:05 43.33922 -123.28308 36897 ft 465 kts 176°
2026-05-04 04:06 43.27452 -123.28050 36897 ft 465 kts 176°
2026-05-04 04:06 43.20992 -123.27791 36895 ft 464 kts 176°
2026-05-04 04:07 43.14583 -123.27545 36896 ft 464 kts 176°
2026-05-04 04:07 43.08125 -123.27298 36905 ft 463 kts 176°
2026-05-04 04:08 43.01690 -123.27061 36906 ft 462 kts 176°
2026-05-04 04:08 42.95261 -123.26819 36911 ft 462 kts 176°
2026-05-04 04:09 42.88839 -123.26571 36923 ft 461 kts 176°
2026-05-04 04:09 42.82419 -123.26322 36927 ft 461 kts 176°
2026-05-04 04:10 42.76011 -123.26077 36928 ft 460 kts 177°
2026-05-04 04:10 42.69613 -123.25838 36930 ft 460 kts 177°
2026-05-04 04:11 42.63225 -123.25598 36927 ft 459 kts 176°
2026-05-04 04:11 42.56885 -123.25346 36934 ft 458 kts 176°
2026-05-04 04:12 42.50501 -123.25105 36937 ft 458 kts 177°
2026-05-04 04:12 42.44144 -123.24872 36942 ft 457 kts 176°
2026-05-04 04:13 42.37786 -123.24632 36944 ft 456 kts 176°
2026-05-04 04:13 42.31442 -123.24395 36948 ft 455 kts 176°
2026-05-04 04:14 42.25117 -123.24172 36946 ft 454 kts 176°
2026-05-04 04:14 42.18801 -123.23940 36947 ft 453 kts 176°
2026-05-04 04:15 42.12525 -123.23706 36953 ft 452 kts 176°
2026-05-04 04:15 42.06246 -123.23481 36953 ft 451 kts 176°
2026-05-04 04:16 41.99981 -123.23256 36949 ft 450 kts 176°
2026-05-04 04:16 41.93719 -123.23023 36953 ft 450 kts 176°
2026-05-04 04:17 41.87452 -123.22796 36950 ft 449 kts 176°
2026-05-04 04:17 41.81204 -123.22574 36953 ft 449 kts 176°
2026-05-04 04:18 41.74962 -123.22350 36954 ft 448 kts 176°
2026-05-04 04:18 41.68726 -123.22124 36954 ft 448 kts 176°
2026-05-04 04:19 41.62490 -123.21895 36951 ft 448 kts 176°
2026-05-04 04:19 41.56295 -123.21667 36955 ft 448 kts 176°
2026-05-04 04:20 41.50062 -123.21447 36963 ft 448 kts 176°
2026-05-04 04:20 41.43824 -123.21239 36973 ft 447 kts 176°
2026-05-04 04:21 41.37602 -123.21031 36979 ft 447 kts 176°
2026-05-04 04:21 41.31418 -123.20828 36990 ft 446 kts 176°
2026-05-04 04:22 41.25207 -123.20666 36993 ft 446 kts 177°
2026-05-04 04:22 41.19006 -123.20520 37000 ft 445 kts 177°
2026-05-04 04:23 41.12811 -123.20367 36999 ft 445 kts 177°
2026-05-04 04:23 41.06628 -123.20213 36998 ft 444 kts 177°
2026-05-04 04:24 41.00455 -123.20062 36997 ft 444 kts 177°
2026-05-04 04:24 40.94277 -123.19912 36987 ft 443 kts 177°
2026-05-04 04:25 40.88123 -123.19762 36983 ft 443 kts 177°
2026-05-04 04:25 40.81960 -123.19602 36980 ft 442 kts 177°
2026-05-04 04:26 40.75807 -123.19442 36976 ft 442 kts 177°
2026-05-04 04:26 40.69661 -123.19283 36969 ft 442 kts 177°
2026-05-04 04:27 40.63512 -123.19118 36972 ft 442 kts 178°
2026-05-04 04:27 40.57373 -123.18966 36965 ft 441 kts 178°
2026-05-04 04:28 40.51234 -123.18814 36970 ft 441 kts 178°
2026-05-04 04:28 40.45097 -123.18663 36972 ft 441 kts 178°
2026-05-04 04:29 40.38973 -123.18510 36974 ft 440 kts 178°
2026-05-04 04:29 40.32848 -123.18366 36979 ft 439 kts 178°
2026-05-04 04:30 40.26741 -123.18224 36980 ft 439 kts 178°
2026-05-04 04:30 40.20642 -123.18067 36976 ft 438 kts 178°
2026-05-04 04:31 40.14588 -123.17914 36977 ft 437 kts 178°
2026-05-04 04:31 40.08502 -123.17765 36984 ft 437 kts 178°
2026-05-04 04:32 40.02430 -123.17619 36986 ft 436 kts 178°
2026-05-04 04:32 39.96371 -123.17472 36990 ft 435 kts 178°
2026-05-04 04:33 39.90311 -123.17251 36982 ft 435 kts 177°
2026-05-04 04:33 39.84260 -123.16932 36982 ft 434 kts 177°
2026-05-04 04:34 39.78219 -123.16631 36982 ft 434 kts 177°
2026-05-04 04:34 39.72221 -123.16353 36985 ft 434 kts 177°
2026-05-04 04:35 39.66183 -123.16079 36988 ft 434 kts 177°
2026-05-04 04:35 39.60140 -123.15812 36994 ft 434 kts 178°
2026-05-04 04:36 39.54109 -123.15530 37003 ft 433 kts 178°
2026-05-04 04:36 39.48077 -123.15248 37002 ft 433 kts 178°
2026-05-04 04:37 39.36073 -123.14702 37017 ft 432 kts 178°
2026-05-04 04:38 39.30057 -123.14424 37023 ft 432 kts 178°
2026-05-04 04:38 39.24040 -123.14142 37031 ft 432 kts 178°
2026-05-04 04:39 39.18070 -123.13872 37031 ft 431 kts 178°
2026-05-04 04:39 39.15094 -123.13445 37029 ft 431 kts 167°
2026-05-04 04:39 39.12258 -123.12212 37027 ft 431 kts 155°
2026-05-04 04:40 39.09703 -123.10195 37023 ft 432 kts 142°
2026-05-04 04:40 39.07558 -123.07483 37019 ft 434 kts 130°
2026-05-04 04:40 39.05925 -123.04209 37005 ft 438 kts 117°
2026-05-04 04:40 39.04678 -123.00628 36996 ft 439 kts 116°
2026-05-04 04:41 39.02196 -122.93440 36983 ft 440 kts 116°
2026-05-04 04:41 38.99694 -122.86250 36971 ft 440 kts 116°
2026-05-04 04:42 38.97185 -122.79065 36961 ft 441 kts 117°
2026-05-04 04:42 38.95925 -122.75462 36700 ft 442 kts 117°
2026-05-04 04:42 38.94663 -122.71853 35936 ft 445 kts 117°
2026-05-04 04:43 38.93317 -122.68276 35153 ft 444 kts 124°
2026-05-04 04:43 38.91453 -122.65158 34356 ft 439 kts 137°
2026-05-04 04:43 38.89083 -122.62746 33670 ft 432 kts 150°
2026-05-04 04:43 38.86388 -122.61131 32874 ft 423 kts 163°
2026-05-04 04:44 38.83552 -122.60379 32117 ft 410 kts 175°
2026-05-04 04:44 38.80752 -122.60465 31626 ft 398 kts 186°
2026-05-04 04:44 38.78043 -122.61158 31094 ft 396 kts 190°
2026-05-04 04:44 38.75359 -122.61913 30585 ft 394 kts 190°
2026-05-04 04:45 38.72689 -122.62659 30061 ft 392 kts 189°
2026-05-04 04:45 38.70058 -122.63394 29491 ft 389 kts 189°
2026-05-04 04:45 38.67423 -122.64130 28969 ft 386 kts 190°
2026-05-04 04:47 38.51867 -122.68513 26086 ft 378 kts 190°
2026-05-04 04:47 38.50170 -122.68988 25782 ft 377 kts 190°
2026-05-04 04:47 38.47616 -122.69707 25320 ft 374 kts 190°
2026-05-04 04:47 38.45076 -122.70422 24860 ft 372 kts 190°
2026-05-04 04:48 38.42552 -122.71131 24401 ft 371 kts 190°
2026-05-04 04:49 38.32553 -122.73930 22585 ft 362 kts 191°
2026-05-04 04:49 38.30097 -122.74618 22091 ft 361 kts 191°
2026-05-04 04:49 38.27650 -122.75297 21666 ft 358 kts 191°
2026-05-04 04:49 38.25230 -122.75968 21235 ft 355 kts 189°
2026-05-04 04:50 38.22790 -122.76323 20785 ft 350 kts 180°
2026-05-04 04:50 38.20382 -122.76109 20355 ft 346 kts 170°
2026-05-04 04:50 38.18062 -122.75468 19935 ft 343 kts 167°
2026-05-04 04:50 38.15719 -122.74781 19511 ft 340 kts 167°
2026-05-04 04:51 38.13416 -122.74110 19092 ft 338 kts 167°
2026-05-04 04:51 38.11133 -122.73448 18681 ft 336 kts 167°
2026-05-04 04:51 38.08889 -122.72799 18271 ft 334 kts 167°
2026-05-04 04:51 38.06630 -122.72146 17824 ft 332 kts 167°
2026-05-04 04:52 38.04389 -122.71499 17399 ft 330 kts 167°
2026-05-04 04:52 38.02180 -122.70858 16996 ft 329 kts 167°
2026-05-04 04:52 37.99957 -122.70215 16591 ft 327 kts 167°
2026-05-04 04:52 37.97746 -122.69578 16181 ft 325 kts 167°
2026-05-04 04:53 37.95546 -122.68945 15792 ft 323 kts 167°
2026-05-04 04:53 37.93361 -122.68317 15394 ft 321 kts 167°
2026-05-04 04:53 37.91207 -122.67579 14996 ft 320 kts 160°
2026-05-04 04:53 37.89213 -122.66357 14606 ft 319 kts 149°
2026-05-04 04:54 37.87434 -122.64667 14198 ft 319 kts 141°
2026-05-04 04:54 37.85742 -122.62857 14000 ft 318 kts 142°
2026-05-04 04:54 37.84039 -122.61055 13998 ft 319 kts 142°
2026-05-04 04:54 37.82358 -122.59279 14000 ft 319 kts 142°
2026-05-04 04:55 37.80651 -122.57475 13974 ft 319 kts 142°
2026-05-04 04:55 37.78951 -122.55678 13330 ft 316 kts 142°
2026-05-04 04:55 37.77287 -122.53914 12817 ft 303 kts 142°
2026-05-04 04:55 37.75709 -122.52236 12618 ft 292 kts 142°
2026-05-04 04:56 37.74177 -122.50613 12145 ft 284 kts 142°
2026-05-04 04:56 37.72692 -122.49042 11522 ft 282 kts 142°
2026-05-04 04:56 37.71185 -122.47440 11021 ft 276 kts 142°
2026-05-04 04:56 37.69726 -122.45886 11004 ft 275 kts 142°
2026-05-04 04:57 37.68323 -122.44390 11002 ft 252 kts 142°
2026-05-04 04:57 37.67050 -122.43033 11006 ft 231 kts 142°
2026-05-04 04:57 37.65841 -122.41746 11005 ft 227 kts 142°
2026-05-04 04:57 37.64651 -122.40483 11008 ft 216 kts 142°
2026-05-04 04:58 37.63531 -122.39292 11004 ft 207 kts 143°
2026-05-04 04:58 37.62430 -122.38126 11012 ft 206 kts 143°
2026-05-04 04:58 37.61381 -122.36894 10960 ft 210 kts 129°
2026-05-04 04:58 37.60713 -122.35198 10541 ft 220 kts 117°
2026-05-04 04:59 37.59955 -122.33457 10217 ft 240 kts 128°
2026-05-04 04:59 37.58950 -122.31723 9855 ft 247 kts 130°
2026-05-04 04:59 37.57916 -122.30013 9478 ft 249 kts 131°
2026-05-04 04:59 37.56863 -122.28318 9318 ft 241 kts 131°
2026-05-04 05:00 37.55842 -122.26683 9086 ft 236 kts 131°
2026-05-04 05:00 37.54835 -122.25070 8877 ft 230 kts 131°
2026-05-04 05:00 37.52931 -122.22007 8508 ft 216 kts 131°
2026-05-04 05:01 37.52007 -122.20516 8193 ft 215 kts 131°
2026-05-04 05:01 37.51086 -122.19031 7887 ft 215 kts 131°
2026-05-04 05:01 37.50352 -122.17402 7584 ft 219 kts 107°
2026-05-04 05:01 37.50356 -122.15462 7236 ft 226 kts 86°
2026-05-04 05:02 37.50345 -122.13520 6910 ft 217 kts 112°
2026-05-04 05:02 37.49633 -122.11896 6604 ft 210 kts 130°
2026-05-04 05:02 37.48929 -122.10299 6324 ft 212 kts 106°
2026-05-04 05:02 37.49013 -122.08462 5994 ft 220 kts 71°
2026-05-04 05:03 37.49967 -122.06913 5650 ft 227 kts 35°
2026-05-04 05:03 37.51438 -122.06285 5320 ft 230 kts
2026-05-04 05:04 37.54010 -122.09878 4735 ft 193 kts 255°
2026-05-04 05:04 37.53646 -122.11505 4420 ft 193 kts 250°
2026-05-04 05:04 37.53597 -122.13172 4112 ft 195 kts 287°
2026-05-04 05:06 37.58058 -122.23789 2363 ft 191 kts 297°
2026-05-04 05:06 37.58684 -122.25250 2265 ft 185 kts 296°
2026-05-04 05:06 37.59108 -122.26680 2140 ft 161 kts 281°
2026-05-04 05:07 37.59226 -122.27985 1994 ft 141 kts 269°
2026-05-04 05:07 37.59165 -122.29185 1547 ft 139 kts 264°
2026-05-04 05:07 37.59165 -122.30441 972 ft 145 kts 278°
2026-05-04 05:09 37.62185 -122.37710 21 ft 21 kts 315°
2026-05-04 05:09 37.62222 -122.37831 21 ft 12 kts 281°
2026-05-04 05:10 37.62229 -122.37906 22 ft 5 kts 271°
2026-05-04 05:10 37.62229 -122.37922 21 ft 1 kts 271°
2026-05-04 05:10 37.62230 -122.37954 21 ft 6 kts 271°
2026-05-04 05:10 37.62229 -122.38021 21 ft 9 kts 268°
2026-05-04 05:11 37.62227 -122.38115 21 ft 12 kts 268°
2026-05-04 05:11 37.62227 -122.38225 21 ft 15 kts 268°
2026-05-04 05:11 37.62223 -122.38367 21 ft 18 kts 268°
2026-05-04 05:11 37.62216 -122.38510 21 ft 19 kts 260°
2026-05-04 05:12 37.62186 -122.38520 21 ft 9 kts 155°
2026-05-04 05:12 37.62134 -122.38426 21 ft 17 kts 118°
2026-05-04 05:12 37.62066 -122.38266 22 ft 25 kts 117°
2026-05-04 05:12 37.61977 -122.38055 21 ft 29 kts 119°
2026-05-04 05:13 37.61859 -122.37911 21 ft 12 kts 163°
2026-05-04 05:13 37.61774 -122.37879 21 ft 14 kts 174°
2026-05-04 05:13 37.61744 -122.37896 21 ft 0 kts 223°
2026-05-04 05:14 37.61743 -122.37896 21 ft 1 kts 223°
2026-05-04 05:14 37.61731 -122.37910 22 ft 4 kts 223°
2026-05-04 05:14 37.61707 -122.37942 23 ft 6 kts 257°
2026-05-04 05:14 37.61708 -122.38007 21 ft 9 kts 275°
2026-05-04 05:15 37.61711 -122.38039 21 ft 0 kts 277°
2026-05-04 05:17 37.61341 -122.38359 21 ft 0 kts 271°
2026-05-04 05:19 37.61550 -122.38274 20 ft 0 kts 217°